Miscellaneous Local Product
Issued by NWS Hastings, NE

Home | Current Version | Previous Version | Graphics & Text | Print | Product List | Glossary On
Versions: 1 2 3 4 5 6 7 8 9 10 11 12 13 14 15 16 17 18 19 20 21 22 23 24 25 26 27 28 29 30 31 32 33 34 35 36 37 38 39 40 41 42 43 44 45 46 47 48 49 50
000
AXUS43 KGID 231202
MISGRI

GID CWA HOURLY WEATHER ROUNDUP
NATIONAL WEATHER SERVICE HASTINGS NE
700 AM CDT THU OCT 23 2014

NOTE: "FAIR" INDICATES FEW OR NO CLOUDS BELOW 12,000 FEET WITH NO
SIGNIFICANT WEATHER AND/OR OBSTRUCTIONS TO VISIBILITY.

...SOUTH CENTRAL NEBRASKA...

CITY           SKY/WX    TMP DP  RH WIND       PRES   REMARKS
GRAND ISLAND   FOG       46  44  93 W5        30.07S VSB 1/4
HASTINGS       FOG       50  49  96 CALM      30.07R VSB 1/4
KEARNEY        CLOUDY    46  45  93 W5        30.08F VSB<1/4
ORD            FOG       39  39 100 CALM      30.06S VSB 1/4
YORK           FOG       54  54 100 CALM      30.07S VSB 1/4
AURORA         FOG       47  47 100 CALM      30.07S VSB 1/4
LEXINGTON      FOG       47  47  98 CALM      30.07F VSB 1/4
HOLDREGE       FOG       45  44  97 CALM      30.07F VSB<1/4
HEBRON         FOG       51  49  94 CALM      30.07R VSB 1/4

...NEBRASKA PANHANDLE...

CITY           SKY/WX    TMP DP  RH WIND       PRES   REMARKS
CHADRON        PTCLDY    31  24  75 SW9       30.05R WCI  23
ALLIANCE       CLEAR     25  21  85 W5        30.08R WCI  19
SCOTTSBLUFF    PTCLDY    32  29  88 NE5       30.10R WCI  27
SIDNEY         CLEAR     33  30  88 W9        30.11S WCI  25

...WESTERN AND NORTH CENTRAL NEBRASKA...

CITY           SKY/WX    TMP DP  RH WIND       PRES   REMARKS
VALENTINE      CLEAR     31  30  96 CALM      30.02F FOG
AINSWORTH      FOG       38  37  98 S5        30.03S VSB 1/2 WCI  34
ONEILL         FOG       37  37 100 SW5       30.04S VSB 1/2 WCI  33
BROKEN BOW     FOG       40  39  97 CALM      30.06F VSB 1/4
IMPERIAL       CLEAR     39  31  72 W7        30.10S WCI  34
NORTH PLATTE   PTCLDY    38  37  97 NW5       30.09S FOG     WCI  34
MCCOOK         FOG       46  45  96 W5        30.10S VSB 1/4

...EASTERN NEBRASKA...

CITY           SKY/WX    TMP DP  RH WIND       PRES   REMARKS
NORFOLK        CLEAR     42  41  96 CALM      30.04F
SO SIOUX CITY  FOG       50  50 100 CALM      30.04R VSB 1/4
TEKAMAH        CLOUDY    55  54  96 NW3       30.04R FOG
COLUMBUS       CLOUDY    45  43  93 CALM      30.07S VSB 1/4
ALBION         CLEAR     37  35  94 CALM      30.06S
OMAHA EPPLEY   CLOUDY    62  58  86 SW5       30.03S
OFFUTT AFB     MOCLDY    59  59 100 W2        30.03R
MILLARD        MOCLDY    59  58  96 CALM      30.04R FOG
LINCOLN        FOG       52  52 100 NW3       30.06R VSB 1/4
NEBRASKA CITY  MOCLDY    60  60 100 SW7       30.04S FOG
BEATRICE       FOG       52  52  99 CALM      30.05S VSB<1/4
FALLS CITY     CLOUDY    62  60  93 S9        30.05R

...NORTHERN KANSAS...

CITY           SKY/WX    TMP DP  RH WIND       PRES   REMARKS
GOODLAND       MOCLDY    44  42  93 W5        30.12S
HILL CITY      FOG       50  49  96 W3        30.09S VSB 1/4
NORTON         FOG       48  46  93 CALM      30.07  VSB 1/4
PHILLIPSBURG   FOG       54  54 100 W5        30.08S VSB 1/2
SMITH CENTER   FOG       50  50 100 N5        30.08S VSB 1/4
BELOIT         CLOUDY    54  54 100 CALM      30.05S VSB<1/4
HAYS           CLOUDY    54  48  82 CALM      30.08R VSB 1/2
RUSSELL        FOG       56  56 100 SW5       30.06R VSB 3/4
CONCORDIA      CLOUDY    61  60  97 SW3       30.06S
SALINA         CLOUDY    62  58  86 S3        30.07R
TOPEKA         LGT RAIN  61  60  97 SE6       30.09R FOG



USA.gov is the U.S. government's official web portal to all federal, state and local government web resources and services.